Location: Crescent
(42.8242°N, 73.7329°W)
Time: 03:09:48
(UTC+00:00)

Tiros 1 - Pass Details

Date: 16 February 2026
Orbit: 618 x 649 km, 48.4° (Epoch: 7 March)

Event Time Altitude Azimuth Distance (km) Brightness Sun altitude
Rises 14:09:44 0° 234° (SW) 2,904 10.4 21.4°
Reaches altitude 10° 14:12:04 10° 232° (SW) 1,994 9.6 21.7°
Maximum altitude 14:16:37 69° 150° (SSE) 666 8.0 22.3°
Drops below altitude 10° 14:21:10 10° 67° (ENE) 1,987 10.0 22.9°
Sets 14:23:28 0° 65° (ENE) 2,892 10.7 23.2°
